{"data":{"norad_id":60366,"epoch":"2026-09-21T20:03:54.306144Z","epoch_age_seconds":70048,"freshness":"FRESH","line1":"1 60366U 24138M   26264.83604521  .00000341  00000+0  21230-4 0  9997","line2":"2 60366  53.1596 117.4501 0001276  90.5580 269.5568 15.34388614120674","mean_motion":15.34388614,"eccentricity":0.0001276,"inclination_deg":53.1596,"raan_deg":117.4501,"arg_perigee_deg":90.558,"mean_anomaly_deg":269.5568,"bstar":2.123e-5,"rev_number":12067,"period_min":93.848454482862,"perigee_km":461.864186475,"apogee_km":463.60997754073,"semimajor_km":6840.8740820079,"source":"CELESTRAK","updated_at":"2026-09-22T09:00:49.226037Z"}}